Weather History for Apalachicola, FL

Change the Weather History Date:

Friday, January 17, 2014

  Actual Average Record
Temperature  
Mean Temperature 53 °F 52 °F  
Max Temperature 69 °F 63 °F 74 °F (2008)
Min Temperature 37 °F 41 °F 22 °F (1977)
Degree Days  
Heating Degree Days 12    
Month to date heating degree days 193  
Since 1 July heating degree days 494  
Cooling Degree Days 0    
Month to date cooling degree days 1  
Year to date cooling degree days 1  
Growing Degree Days 2 (Base 50)    
Moisture  
Dew Point 39 °F    
Average Humidity 57    
Maximum Humidity 83    
Minimum Humidity 30    
Precipitation  
Precipitation 0.00 in 0.15 in 0.70 in (1994)
Month to date precipitation 4.10 2.31  
Year to date precipitation 4.10 2.31  
Sea Level Pressure  
Sea Level Pressure 30.12 in    
Wind  
Wind Speed 8 mph (WNW)    
Max Wind Speed 21 mph    
Max Gust Speed 26 mph    
Visibility 10 miles    
Events      
T = Trace of Precipitation, MM = Missing Value Source: NWS Daily Summary

Daily Weather History Graph

Daily Weather History Graph

Search for Another Location

Airport:

Trip Planner

Search our weather history database for the weather conditions in past years. The results will help you decide how hot, cold, wet, or windy it might be!

Date:

Astronomy

Jan. 17, 2014 Rise Set
Actual Time 7:35 AM EST 6:04 PM EST
Civil Twilight 7:10 AM EST 6:30 PM EST
Nautical Twilight 6:40 AM EST 6:59 PM EST
Astronomical Twilight 6:12 AM EST 7:28 PM EST
Moon 7:39 PM EST (1/17) 8:12 AM EST (1/17)
Length of Visible Light 11h 20m
Length of Day
10h 29m
Full, 98% of the Moon is Illuminated
Jan 17
Full
Jan 24
Last Quarter
Jan 30
New
Feb 6
First Quarter
Feb 14
Full

Hourly Weather History & Observations

Time (EST) Temp. Windchill Dew Point Humidity Pressure Visibility Wind Dir Wind Speed Gust Speed Precip Events Conditions
12:53 AM 37.0 °F - 32.0 °F 82% 30.15 in 10.0 mi Calm Calm - N/A   Clear
1:53 AM 39.0 °F - 32.0 °F 76% 30.15 in 10.0 mi Calm Calm - N/A   Clear
2:53 AM 39.9 °F - 34.0 °F 79% 30.14 in 10.0 mi Calm Calm - N/A   Clear
3:53 AM 42.1 °F - 37.0 °F 82% 30.14 in 10.0 mi Calm Calm - N/A   Clear
4:53 AM 43.0 °F 41.3 °F 35.1 °F 74% 30.12 in 10.0 mi SW 3.5 mph - N/A   Clear
5:53 AM 41.0 °F - 35.1 °F 79% 30.12 in 10.0 mi Calm Calm - N/A   Clear
6:53 AM 42.1 °F - 37.0 °F 82% 30.13 in 10.0 mi Calm Calm - N/A   Clear
7:53 AM 43.0 °F - 37.9 °F 82% 30.13 in 10.0 mi Calm Calm - N/A   Clear
8:53 AM 55.9 °F - 50.0 °F 80% 30.14 in 10.0 mi SW 3.5 mph - N/A   Clear
9:53 AM 62.1 °F - 51.1 °F 67% 30.16 in 10.0 mi WSW 6.9 mph - N/A   Clear
10:53 AM 66.0 °F - 50.0 °F 56% 30.16 in 10.0 mi WSW 9.2 mph - N/A   Partly Cloudy
11:53 AM 66.0 °F - 48.9 °F 54% 30.14 in 10.0 mi NW 17.3 mph 24.2 mph N/A   Mostly Cloudy
12:53 PM 66.0 °F - 48.9 °F 54% 30.12 in 10.0 mi WNW 18.4 mph 24.2 mph N/A   Mostly Cloudy
1:53 PM 66.0 °F - 48.0 °F 52% 30.09 in 10.0 mi WNW 17.3 mph 24.2 mph N/A   Clear
2:53 PM 64.9 °F - 34.0 °F 32% 30.08 in 10.0 mi NW 11.5 mph 20.7 mph N/A   Clear
3:53 PM 64.0 °F - 36.0 °F 35% 30.07 in 10.0 mi WNW 15.0 mph 23.0 mph N/A   Clear
4:53 PM 62.1 °F - 30.0 °F 30% 30.07 in 10.0 mi WNW 12.7 mph - N/A   Clear
5:53 PM 59.0 °F - 39.9 °F 49% 30.08 in 10.0 mi West 8.1 mph - N/A   Partly Cloudy
6:53 PM 57.9 °F - 42.1 °F 56% 30.08 in 10.0 mi West 6.9 mph - N/A   Mostly Cloudy
7:53 PM 57.0 °F - 39.9 °F 53% 30.10 in 10.0 mi West 9.2 mph - N/A   Clear
8:53 PM 57.9 °F - 37.0 °F 46% 30.12 in 10.0 mi West 11.5 mph - N/A   Clear
9:53 PM 57.0 °F - 39.0 °F 51% 30.14 in 10.0 mi WNW 12.7 mph - N/A   Clear
10:53 PM 55.0 °F - 36.0 °F 49% 30.16 in 10.0 mi NW 10.4 mph - N/A   Clear
11:53 PM 52.0 °F - 25.0 °F 35% 30.17 in 10.0 mi NNW 13.8 mph - N/A   Clear